Weather History for Florennes, Belgium

Change the Weather History Date:

Thursday, January 17, 2013

  Actual Average Record
Temperature  
Mean Temperature 20 °F -  
Max Temperature 23 °F 39 °F 50 °F (2007)
Min Temperature 18 °F 33 °F 18 °F (2013)
Degree Days  
Heating Degree Days 44    
Moisture  
Dew Point 20 °F    
Average Humidity 94    
Maximum Humidity 100    
Minimum Humidity 86    
Precipitation  
Precipitation 0.00 in - - ()
Sea Level Pressure  
Sea Level Pressure 30.00 in    
Wind  
Wind Speed 4 mph ()    
Max Wind Speed 9 mph    
Max Gust Speed -    
Visibility 1.3 miles    
Events Fog    
Averages and records for this station are not official NWS values.
T = Trace of Precipitation, MM = Missing Value Source: Averaged Metar Reports

Daily Weather History Graph

Daily Weather History Graph

Search for Another Location

Airport:

Trip Planner

Search our weather history database for the weather conditions in past years. The results will help you decide how hot, cold, wet, or windy it might be!

Date:

Astronomy

Jan. 17, 2013 Rise Set
Actual Time 8:33 AM CET 5:10 PM CET
Civil Twilight 7:56 AM CET 5:47 PM CET
Nautical Twilight 7:15 AM CET 6:27 PM CET
Astronomical Twilight 6:37 AM CET 7:06 PM CET
Moon 10:49 AM CET (1/17) No Moon Set
Length of Visible Light 9h 50m
Length of Day
8h 37m
Waxing Crescent, 35% of the Moon is Illuminated
Jan 17
Waxing Crescent
Jan 19
First Quarter
Jan 27
Full
Feb 3
Last Quarter
Feb 10
New

Hourly Weather History & Observations

Time (CET) Temp. Windchill Dew Point Humidity Pressure Visibility Wind Dir Wind Speed Gust Speed Precip Events Conditions
12:25 AM 21.2 °F 14.9 °F 19.4 °F 93% 29.92 in 1.9 mi ENE 4.6 mph - N/A   Mostly Cloudy
12:55 AM 21.2 °F 13.6 °F 19.4 °F 93% 29.92 in 1.9 mi NNE 5.8 mph - N/A   Mostly Cloudy
1:00 AM 22 °F - 20 °F 89% 30.00 in 2 mi NNE 6.7 mph - -   Mist
1:25 AM 21.2 °F 13.6 °F 19.4 °F 93% 29.92 in 1.8 mi NNE 5.8 mph - N/A   Mostly Cloudy
1:55 AM 21.2 °F 16.4 °F 19.4 °F 93% 29.92 in 1.7 mi NE 3.5 mph - N/A   Mostly Cloudy
2:25 AM 21.2 °F 14.9 °F 19.4 °F 93% 29.92 in 1.7 mi ENE 4.6 mph - N/A   Mostly Cloudy
2:55 AM 23.0 °F 18.4 °F 19.4 °F 86% 29.95 in 1.7 mi NE 3.5 mph - N/A   Mostly Cloudy
3:25 AM 23.0 °F - 21.2 °F 93% 29.95 in 1.7 mi Variable 2.3 mph - N/A   Mostly Cloudy
3:55 AM 23.0 °F - 21.2 °F 93% 29.95 in 1.7 mi Variable 1.2 mph - N/A   Mostly Cloudy
4:00 AM 23 °F - 20 °F 86% 30.04 in 2 mi 2.2 mph - -   Mist
4:25 AM 21.2 °F - 17.6 °F 86% 29.95 in 1.9 mi NNE 2.3 mph - N/A   Scattered Clouds
4:51 AM 17.6 °F 10.7 °F 17.6 °F 100% 29.95 in 0.9 mi North 4.6 mph - N/A   Mostly Cloudy
4:54 AM 19.4 °F 14.3 °F 17.6 °F 93% 29.95 in 0.4 mi Variable 3.5 mph - N/A Fog Fog
4:55 AM 19.4 °F 14.3 °F 19.4 °F 100% 29.98 in 0.4 mi North 3.5 mph - N/A Fog Light Freezing Fog
5:25 AM 21.2 °F 13.6 °F 19.4 °F 93% 29.98 in 0.3 mi NNE 5.8 mph - N/A Fog Light Freezing Fog
5:55 AM 21.2 °F 14.9 °F 19.4 °F 93% 29.98 in 0.2 mi NNE 4.6 mph - N/A Fog Light Freezing Fog
6:25 AM 21.2 °F 14.9 °F 19.4 °F 93% 29.98 in 0.2 mi North 4.6 mph - N/A Fog Light Freezing Fog
6:55 AM 19.4 °F 12.8 °F 19.4 °F 100% 29.98 in 0.1 mi ENE 4.6 mph - N/A Fog Light Freezing Fog
7:00 AM 20 °F - 19 °F 95% 30.06 in 0 mi ENE 4.5 mph - - Fog Fog
7:25 AM 19.4 °F - 19.4 °F 100% 29.98 in 0.1 mi NE 2.3 mph - N/A Fog Light Freezing Fog
7:55 AM 19.4 °F - 17.6 °F 93% 29.98 in 0.1 mi Variable 2.3 mph - N/A Fog Light Freezing Fog
8:25 AM 19.4 °F 12.8 °F 17.6 °F 93% 30.01 in 0.1 mi NNE 4.6 mph - N/A Fog Light Freezing Fog
8:55 AM 19.4 °F - 19.4 °F 100% 30.01 in 0.1 mi Variable 2.3 mph - N/A Fog Light Freezing Fog
9:25 AM 19.4 °F 12.8 °F 19.4 °F 100% 30.01 in 0.2 mi NE 4.6 mph - N/A Fog Light Freezing Fog
9:55 AM 19.4 °F 12.8 °F 19.4 °F 100% 30.01 in 0.2 mi NE 4.6 mph - N/A Fog Light Freezing Fog
10:25 AM 19.4 °F 14.3 °F 19.4 °F 100% 30.04 in 0.2 mi Variable 3.5 mph - N/A Fog Light Freezing Fog
10:55 AM 19.4 °F 14.3 °F 19.4 °F 100% 30.04 in 0.2 mi Variable 3.5 mph - N/A Fog Light Freezing Fog
11:25 AM 21.2 °F 13.6 °F 19.4 °F 93% 30.04 in 0.4 mi East 5.8 mph - N/A Fog Light Freezing Fog
11:55 AM 21.2 °F 16.4 °F 21.2 °F 100% 30.04 in 0.6 mi Variable 3.5 mph - N/A Fog Light Freezing Fog
12:25 PM 21.2 °F - 21.2 °F 100% 30.01 in 1.6 mi Variable 1.2 mph - N/A   Mostly Cloudy
12:55 PM 21.2 °F 13.6 °F 19.4 °F 93% 30.01 in 1.9 mi ENE 5.8 mph - N/A   Mostly Cloudy
1:00 PM 21 °F - 20 °F 94% 30.10 in 2 mi ENE 6.7 mph - - Fog Light Fog
1:25 PM 21.2 °F - 19.4 °F 93% 30.01 in 2.2 mi Variable 2.3 mph - N/A   Mostly Cloudy
1:55 PM 21.2 °F 13.6 °F 19.4 °F 93% 30.01 in 2.5 mi NNE 5.8 mph - N/A   Mostly Cloudy
2:25 PM 21.2 °F 14.9 °F 19.4 °F 93% 30.01 in 2.2 mi NNE 4.6 mph - N/A   Mostly Cloudy
2:55 PM 21.2 °F 16.4 °F 19.4 °F 93% 30.01 in 2.2 mi North 3.5 mph - N/A   Mostly Cloudy
3:25 PM 21.2 °F 12.6 °F 19.4 °F 93% 30.01 in 1.9 mi NNE 6.9 mph - N/A   Mostly Cloudy
3:55 PM 21.2 °F 11.7 °F 19.4 °F 93% 30.04 in 2.2 mi NNE 8.1 mph - N/A   Mostly Cloudy
4:00 PM 22 °F - 20 °F 87% 30.11 in 2 mi NNE 6.7 mph - -   Mist
4:55 PM 21.2 °F 12.6 °F 19.4 °F 93% 30.04 in 1.0 mi NNE 6.9 mph - N/A   Mostly Cloudy
5:25 PM 21.2 °F 13.6 °F 19.4 °F 93% 30.04 in 1.2 mi NNE 5.8 mph - N/A   Mostly Cloudy
5:55 PM 21.2 °F 12.6 °F 19.4 °F 93% 30.04 in 1.6 mi NNE 6.9 mph - N/A   Mostly Cloudy
6:25 PM 21.2 °F 11.7 °F 19.4 °F 93% 30.01 in 1.9 mi ENE 8.1 mph - N/A   Mostly Cloudy
6:55 PM 21.2 °F 12.6 °F 19.4 °F 93% 30.01 in 2.2 mi East 6.9 mph - N/A   Mostly Cloudy
7:00 PM 22 °F - 20 °F 87% 30.10 in 2 mi East 6.7 mph - -   Mist
7:25 PM 21.2 °F 12.6 °F 19.4 °F 93% 30.01 in 2.2 mi East 6.9 mph - N/A   Mostly Cloudy
7:55 PM 21.2 °F 11.7 °F 19.4 °F 93% 30.01 in 1.9 mi East 8.1 mph - N/A   Mostly Cloudy
8:25 PM 21.2 °F 11.7 °F 19.4 °F 93% 30.01 in 1.9 mi East 8.1 mph - N/A   Mostly Cloudy
8:55 PM 21.2 °F - 19.4 °F 93% 30.01 in 2.2 mi Variable 2.3 mph - N/A   Mostly Cloudy
9:25 PM 23.0 °F 15.8 °F 21.2 °F 93% 30.01 in 1.9 mi ESE 5.8 mph - N/A   Mostly Cloudy
9:55 PM 21.2 °F 10.9 °F 19.4 °F 93% 29.98 in 1.9 mi East 9.2 mph - N/A   Mostly Cloudy
10:00 PM 22 °F - 20 °F 90% 30.07 in 2 mi East 8.9 mph - -   Mist
10:25 PM 21.2 °F 11.7 °F 21.2 °F 100% 29.98 in 1.2 mi East 8.1 mph - N/A   Mostly Cloudy
10:55 PM 21.2 °F 12.6 °F 21.2 °F 100% 29.98 in 1.6 mi East 6.9 mph - N/A   Mostly Cloudy
11:25 PM 21.2 °F 13.6 °F 21.2 °F 100% 29.98 in 1.2 mi ESE 5.8 mph - N/A   Mostly Cloudy
11:55 PM 21.2 °F 13.6 °F 21.2 °F 100% 29.98 in 1.2 mi ESE 5.8 mph - N/A   Mostly Cloudy